GEFSSE_prec_meanprecacc_366.txt.gz
Total_Precipitation_Accumulation
3.50 3.70 4.29 4.06 3.35 3.14 3.20 3.18 3.27 3.18 3.19 3.30 3.26 3.14 2.99 2.86 2.64 2.65 2.64 2.64 2.67 2.77 2.92 3.05 3.14 3.13 3.01 2.88 2.85 2.90 2.82 2.66 2.96 3.07 3.15 3.17 3.10 3.15 3.26 3.36 3.42 2.48 2.35
2.94 2.96 3.49 3.39 3.11 3.12 3.05 3.09 3.16 3.06 3.08 3.20 3.23 3.11 2.92 2.75 2.69 2.63 2.59 2.68 2.76 2.79 2.98 3.02 2.85 2.73 2.55 2.43 2.51 2.73 2.80 2.80 3.12 3.33 3.49 3.47 3.42 3.39 3.43 3.44 3.42 2.30 2.20
2.36 2.35 2.63 2.87 2.71 2.77 2.79 2.71 2.73 2.71 2.86 2.99 3.05 3.09 3.01 2.84 2.81 2.72 2.57 2.75 2.89 2.79 2.85 2.74 2.58 2.41 2.25 2.13 2.22 2.65 2.82 3.03 3.56 3.79 4.12 3.61 3.12 3.53 3.48 3.41 3.06 2.32 2.18
1.94 2.03 2.13 2.52 2.46 2.32 2.26 2.33 2.53 2.53 2.47 2.58 2.81 3.05 3.11 3.06 2.95 2.87 2.75 2.90 2.94 2.77 2.83 2.69 2.42 2.11 1.97 1.99 2.21 2.51 2.73 3.11 3.63 4.12 4.30 3.30 2.51 2.97 3.05 2.91 2.79 2.42 2.21
1.67 1.82 2.13 2.24 2.18 2.06 2.02 2.11 2.40 2.29 2.25 2.35 2.49 2.81 3.01 3.07 3.20 3.16 2.95 2.93 2.76 2.67 2.71 2.57 2.23 1.94 1.78 1.84 2.14 2.36 2.54 3.06 3.69 3.82 3.34 3.17 2.92 2.81 2.63 2.60 2.61 2.36 2.10
1.47 1.64 1.92 2.07 1.96 1.85 1.88 2.04 2.28 2.17 2.18 2.23 2.26 2.62 2.80 2.79 2.86 2.91 2.93 2.76 2.57 2.49 2.49 2.59 2.17 1.93 1.83 1.93 2.17 2.29 2.49 2.99 3.37 2.96 2.57 2.68 2.48 2.56 2.55 2.65 2.66 2.48 2.14
1.42 1.66 1.78 1.97 1.90 1.86 1.94 1.99 2.14 2.16 2.13 2.09 2.23 2.55 2.66 2.65 2.77 2.77 2.72 2.45 2.25 2.33 2.37 2.39 2.19 1.95 1.90 2.03 2.08 2.16 2.49 2.90 2.75 2.40 2.38 2.56 2.10 2.06 2.45 2.77 3.03 2.82 2.38
1.23 1.50 1.63 1.83 1.88 1.85 1.85 1.85 1.97 1.90 1.91 2.01 2.20 2.41 2.36 2.34 2.47 2.50 2.49 2.38 2.12 2.23 2.17 2.08 2.18 2.06 2.10 2.09 1.96 1.90 2.17 2.50 2.19 2.00 2.16 2.28 1.81 1.98 2.51 2.92 3.28 3.13 2.73
1.14 1.34 1.60 1.78 1.86 1.83 1.80 1.77 1.92 1.98 1.90 1.94 2.08 2.22 2.29 2.27 2.23 2.15 2.27 2.31 2.11 2.05 1.94 1.93 2.11 2.26 2.26 2.06 1.80 1.81 2.06 2.47 2.31 2.07 1.86 1.95 1.79 2.09 2.67 2.99 3.18 3.10 2.87
1.52 1.52 1.51 1.49 1.59 1.67 1.69 1.86 1.99 2.06 2.00 1.98 2.07 2.19 2.32 2.24 2.14 2.05 1.91 2.09 2.11 2.02 1.92 1.84 1.97 2.14 2.04 1.93 1.84 2.01 2.26 2.39 2.23 2.15 2.04 1.79 1.85 2.26 2.77 2.93 3.11 2.99 2.82
2.09 2.11 1.83 1.62 1.57 1.68 1.57 1.71 2.22 2.42 2.27 2.31 2.43 2.44 2.54 2.53 2.34 2.30 2.18 2.33 2.23 2.19 2.12 2.02 2.03 2.22 2.05 1.84 2.00 2.29 2.30 2.26 2.56 2.60 2.08 1.72 2.02 2.62 2.95 3.03 3.04 2.90 2.82
2.60 2.61 2.21 1.90 1.67 1.53 1.36 1.82 2.36 2.30 2.40 2.55 2.66 2.51 2.78 2.99 2.85 2.29 2.59 2.97 2.93 2.85 2.64 2.57 2.49 2.31 2.27 2.12 2.55 2.91 2.40 2.57 2.88 2.71 2.19 2.05 2.56 3.10 3.51 3.46 3.11 2.81 2.67
2.97 2.83 2.36 2.08 1.89 1.62 1.71 1.80 2.10 2.42 2.73 2.64 2.45 2.43 2.83 2.73 2.52 2.53 2.77 2.96 3.12 2.96 2.80 2.80 2.89 2.62 2.87 3.34 3.49 3.27 2.72 2.78 2.87 2.75 2.44 2.45 3.07 3.79 4.19 4.00 3.47 3.06 2.80
3.11 2.83 2.48 2.24 2.03 1.88 1.82 1.85 2.03 2.20 2.45 2.53 2.61 2.55 2.80 3.23 3.18 3.11 3.22 3.19 3.27 3.39 3.75 3.52 3.62 3.34 3.32 3.39 3.53 3.31 3.03 3.07 3.08 3.34 3.42 3.21 3.51 4.02 4.57 4.47 3.91 3.46 3.30
3.23 3.02 2.72 2.36 2.36 2.28 2.42 2.52 2.20 2.29 2.42 2.68 2.98 2.93 2.98 3.40 3.42 3.38 3.39 3.50 3.28 3.31 3.60 3.93 3.72 3.73 3.83 3.62 3.26 3.10 3.25 3.28 3.36 3.43 3.55 3.71 3.63 3.79 4.46 4.68 4.32 3.92 3.77
3.66 3.61 3.33 2.92 2.91 2.94 2.84 2.88 2.80 2.52 2.73 2.84 3.04 2.98 3.09 3.38 3.59 3.56 3.36 3.48 3.34 3.27 3.43 3.72 3.72 4.16 4.13 4.03 3.56 3.29 3.29 3.36 3.39 3.46 3.48 3.86 3.79 3.61 4.02 4.47 4.62 4.49 4.29
3.78 3.92 3.84 3.67 3.72 3.71 3.48 3.25 3.06 2.93 2.89 3.20 3.36 3.24 3.28 3.32 3.59 3.57 3.51 3.38 3.38 3.41 3.64 3.75 3.79 4.15 4.12 4.04 3.88 3.56 3.39 3.13 3.04 3.20 3.21 3.44 3.40 3.34 3.60 4.03 4.40 4.57 4.65
3.92 4.17 4.35 4.23 4.28 4.19 4.12 3.93 3.58 3.45 3.44 3.41 3.34 3.38 3.27 3.37 3.50 3.76 3.58 3.31 3.41 3.38 3.58 3.98 4.10 4.32 4.48 4.41 4.10 3.72 3.48 3.35 3.12 3.13 2.98 2.95 3.24 2.87 3.17 3.66 4.01 4.26 4.80
4.23 4.64 5.04 5.11 5.02 4.74 4.48 4.37 4.26 4.11 3.89 3.62 3.54 3.46 3.28 3.23 3.25 3.61 3.57 3.49 3.51 3.73 3.76 3.53 4.15 4.49 4.64 4.57 3.81 3.64 3.24 3.15 3.03 2.80 2.87 2.76 2.99 3.06 3.12 3.08 3.26 3.60 4.55
4.69 5.33 5.46 5.48 5.75 5.56 5.28 5.16 4.97 4.58 4.19 3.86 3.67 3.53 3.23 3.17 3.13 3.54 3.37 3.37 3.49 3.88 4.05 4.13 4.57 4.57 4.40 4.54 3.77 3.42 2.96 2.59 2.58 2.63 2.45 2.48 2.61 2.54 2.83 3.26 3.62 3.34 3.85
4.52 5.16 5.86 6.08 5.97 5.81 5.58 5.17 4.84 4.44 4.19 3.84 3.47 3.24 3.17 3.14 3.29 3.84 3.48 3.80 3.70 3.80 3.89 4.04 4.35 4.36 4.11 4.35 4.40 3.73 2.82 2.27 2.25 2.14 2.14 2.30 2.22 2.23 2.60 3.26 3.54 3.62 3.41
3.91 4.41 4.92 5.28 5.00 4.68 4.54 4.51 4.44 4.39 3.92 3.72 3.60 3.67 3.34 3.34 3.38 3.47 3.75 3.66 3.71 3.89 3.68 3.75 4.14 4.06 3.62 3.97 4.41 4.47 3.56 2.89 2.32 1.77 1.95 2.04 2.18 2.36 2.32 2.42 2.88 3.48 3.47
3.35 3.51 3.71 3.99 4.08 4.14 4.26 4.42 4.59 4.75 4.39 4.19 4.09 3.98 3.50 3.41 3.40 3.52 3.50 3.47 3.62 3.56 3.58 3.59 3.77 3.93 3.82 3.74 4.11 4.54 3.94 3.25 2.57 2.00 1.89 1.88 2.17 2.46 2.41 2.42 2.65 3.11 3.33
2.71 2.94 3.46 3.72 3.86 4.12 4.47 4.54 4.53 4.47 4.42 4.36 4.40 4.31 4.12 3.86 3.63 3.45 3.32 3.29 3.30 3.16 3.32 3.10 3.41 3.68 3.89 3.58 3.68 3.65 3.50 3.46 3.33 2.61 2.09 1.97 2.18 2.37 2.46 2.40 2.52 2.87 3.16
2.27 2.60 3.20 3.79 4.07 4.31 4.57 4.62 4.88 4.70 4.55 4.38 4.40 4.46 4.25 3.94 3.59 3.23 3.26 3.28 3.27 3.08 2.98 2.95 3.25 3.23 3.35 3.39 3.46 3.43 3.48 3.43 3.25 3.01 2.59 2.35 2.22 1.95 1.96 2.10 2.34 2.66 2.90
2.40 2.70 3.16 3.70 4.15 4.35 4.41 4.43 4.55 4.56 4.55 4.30 4.15 3.83 3.44 3.30 3.17 2.92 2.95 3.04 2.96 2.93 2.96 2.92 2.98 3.00 3.10 3.18 3.21 3.20 3.35 3.30 3.28 3.34 2.95 2.67 2.43 2.06 1.88 1.94 2.12 2.37 2.56

GEFSSE_prec_meanprecacc_372.txt.gz
Total_Precipitation_Accumulation
3.57 3.79 4.40 4.21 3.49 3.27 3.32 3.27 3.34 3.26 3.26 3.37 3.33 3.21 3.04 2.91 2.70 2.73 2.72 2.71 2.73 2.84 3.00 3.15 3.27 3.30 3.21 3.10 3.05 3.03 2.91 2.72 3.04 3.16 3.24 3.24 3.15 3.20 3.32 3.42 3.48 2.54 2.42
2.99 3.05 3.59 3.48 3.23 3.24 3.17 3.20 3.23 3.13 3.17 3.28 3.30 3.19 2.98 2.79 2.75 2.71 2.66 2.74 2.82 2.86 3.07 3.13 2.99 2.88 2.71 2.60 2.69 2.88 2.88 2.86 3.19 3.40 3.56 3.53 3.48 3.46 3.50 3.48 3.46 2.36 2.26
2.41 2.44 2.75 2.97 2.83 2.88 2.87 2.79 2.79 2.81 3.04 3.12 3.15 3.20 3.11 2.90 2.86 2.79 2.65 2.81 2.95 2.86 2.94 2.86 2.68 2.50 2.34 2.26 2.40 2.80 2.90 3.09 3.62 3.86 4.19 3.68 3.19 3.60 3.54 3.46 3.10 2.36 2.24
1.99 2.10 2.24 2.66 2.55 2.41 2.35 2.40 2.59 2.61 2.61 2.70 2.90 3.15 3.23 3.13 3.01 2.95 2.82 2.96 3.01 2.84 2.90 2.76 2.48 2.17 2.06 2.10 2.36 2.63 2.81 3.16 3.69 4.20 4.39 3.39 2.57 3.02 3.11 2.97 2.84 2.46 2.28
1.73 1.90 2.24 2.35 2.26 2.15 2.11 2.18 2.46 2.35 2.32 2.43 2.56 2.89 3.10 3.16 3.29 3.24 3.01 3.00 2.84 2.74 2.77 2.62 2.27 1.98 1.85 1.94 2.25 2.44 2.61 3.12 3.77 3.92 3.43 3.28 3.01 2.86 2.67 2.65 2.66 2.40 2.16
1.51 1.70 2.03 2.17 2.05 1.94 1.95 2.10 2.35 2.24 2.27 2.34 2.37 2.72 2.91 2.89 2.95 2.99 3.00 2.84 2.65 2.56 2.55 2.65 2.22 1.98 1.88 1.99 2.23 2.35 2.55 3.07 3.45 3.03 2.64 2.75 2.54 2.61 2.59 2.70 2.70 2.51 2.18
1.47 1.74 1.92 2.08 2.01 1.93 2.00 2.07 2.23 2.25 2.21 2.20 2.35 2.67 2.77 2.74 2.86 2.85 2.78 2.52 2.32 2.39 2.42 2.45 2.27 2.03 1.96 2.10 2.16 2.23 2.57 2.98 2.81 2.45 2.41 2.60 2.13 2.10 2.49 2.81 3.08 2.87 2.42
1.28 1.59 1.74 1.98 2.02 1.94 1.93 1.94 2.07 2.00 1.99 2.12 2.31 2.51 2.46 2.42 2.55 2.59 2.58 2.46 2.20 2.29 2.23 2.14 2.26 2.15 2.20 2.21 2.08 2.00 2.24 2.55 2.22 2.03 2.19 2.31 1.84 2.01 2.55 2.96 3.32 3.17 2.78
1.19 1.41 1.72 1.98 2.01 1.95 1.91 1.86 2.00 2.06 1.98 2.03 2.17 2.31 2.37 2.35 2.31 2.25 2.35 2.40 2.21 2.13 2.02 2.02 2.20 2.36 2.38 2.19 1.90 1.88 2.11 2.51 2.33 2.10 1.88 1.97 1.82 2.12 2.71 3.03 3.23 3.14 2.91
1.55 1.59 1.63 1.62 1.70 1.78 1.83 1.95 2.07 2.14 2.09 2.09 2.15 2.25 2.39 2.32 2.22 2.11 1.96 2.16 2.20 2.11 2.01 1.96 2.13 2.27 2.14 2.02 1.90 2.06 2.31 2.43 2.26 2.18 2.07 1.82 1.88 2.30 2.81 2.97 3.15 3.02 2.85
2.11 2.16 1.90 1.69 1.64 1.75 1.67 1.80 2.30 2.50 2.38 2.45 2.54 2.52 2.62 2.61 2.41 2.38 2.25 2.42 2.31 2.31 2.31 2.23 2.23 2.37 2.14 1.89 2.05 2.34 2.34 2.29 2.59 2.63 2.11 1.74 2.05 2.67 2.99 3.07 3.06 2.92 2.85
2.62 2.64 2.25 1.94 1.71 1.59 1.42 1.90 2.47 2.41 2.51 2.67 2.75 2.59 2.85 3.05 2.92 2.37 2.69 3.05 3.02 3.09 2.92 2.75 2.65 2.44 2.36 2.18 2.60 2.94 2.42 2.59 2.91 2.73 2.22 2.07 2.59 3.14 3.54 3.50 3.14 2.84 2.71
2.99 2.86 2.39 2.11 1.93 1.67 1.78 1.88 2.18 2.50 2.81 2.73 2.51 2.49 2.89 2.79 2.59 2.60 2.85 3.05 3.21 3.06 2.90 2.88 2.99 2.73 2.99 3.43 3.57 3.31 2.75 2.82 2.92 2.78 2.46 2.47 3.09 3.84 4.25 4.05 3.51 3.10 2.86
3.13 2.84 2.51 2.28 2.08 1.94 1.88 1.90 2.07 2.24 2.50 2.61 2.68 2.59 2.83 3.28 3.24 3.18 3.31 3.29 3.37 3.49 3.82 3.59 3.70 3.45 3.44 3.49 3.63 3.37 3.09 3.15 3.15 3.39 3.46 3.24 3.54 4.05 4.62 4.52 3.96 3.51 3.37
3.26 3.05 2.77 2.40 2.43 2.35 2.48 2.57 2.23 2.33 2.47 2.74 3.03 2.97 3.01 3.44 3.46 3.43 3.46 3.57 3.33 3.36 3.64 3.99 3.77 3.79 3.92 3.73 3.37 3.20 3.35 3.37 3.43 3.47 3.59 3.74 3.66 3.81 4.49 4.73 4.37 3.98 3.86
3.68 3.64 3.37 2.96 2.96 3.00 2.90 2.92 2.84 2.56 2.79 2.91 3.09 3.03 3.15 3.44 3.66 3.62 3.41 3.54 3.39 3.30 3.46 3.76 3.76 4.19 4.17 4.10 3.65 3.40 3.41 3.46 3.45 3.50 3.52 3.89 3.81 3.62 4.04 4.50 4.66 4.55 4.36
3.81 3.94 3.88 3.70 3.76 3.75 3.54 3.30 3.09 2.98 2.94 3.25 3.41 3.29 3.33 3.38 3.65 3.64 3.57 3.44 3.43 3.44 3.67 3.79 3.83 4.19 4.15 4.08 3.96 3.65 3.48 3.21 3.10 3.25 3.25 3.48 3.43 3.36 3.62 4.06 4.44 4.62 4.70
3.94 4.19 4.38 4.25 4.30 4.23 4.17 3.98 3.63 3.50 3.49 3.46 3.39 3.43 3.32 3.42 3.56 3.83 3.64 3.36 3.45 3.42 3.61 4.02 4.14 4.38 4.54 4.48 4.18 3.79 3.55 3.44 3.19 3.18 3.01 2.98 3.28 2.90 3.20 3.69 4.05 4.30 4.84
4.25 4.66 5.06 5.14 5.06 4.80 4.53 4.44 4.32 4.17 3.94 3.67 3.60 3.50 3.33 3.29 3.30 3.68 3.63 3.56 3.56 3.77 3.80 3.58 4.21 4.56 4.73 4.64 3.86 3.69 3.29 3.21 3.07 2.83 2.91 2.80 3.03 3.09 3.17 3.12 3.29 3.63 4.59
4.70 5.34 5.48 5.51 5.80 5.61 5.31 5.20 5.02 4.63 4.24 3.91 3.75 3.60 3.28 3.22 3.19 3.60 3.43 3.46 3.55 3.93 4.10 4.19 4.64 4.66 4.50 4.61 3.81 3.47 3.00 2.64 2.62 2.68 2.49 2.52 2.65 2.57 2.87 3.31 3.67 3.37 3.88
4.53 5.18 5.87 6.11 6.01 5.86 5.62 5.21 4.88 4.51 4.27 3.92 3.54 3.27 3.20 3.18 3.34 3.91 3.54 3.92 3.78 3.86 3.95 4.09 4.41 4.44 4.19 4.42 4.48 3.81 2.88 2.31 2.28 2.17 2.18 2.34 2.25 2.26 2.64 3.30 3.60 3.66 3.44
3.93 4.42 4.93 5.31 5.03 4.71 4.58 4.56 4.48 4.45 4.00 3.83 3.66 3.70 3.36 3.37 3.42 3.52 3.81 3.74 3.78 3.96 3.74 3.81 4.19 4.11 3.67 4.02 4.47 4.54 3.62 2.95 2.35 1.79 1.98 2.07 2.20 2.40 2.35 2.44 2.91 3.51 3.50
3.36 3.51 3.72 4.01 4.11 4.18 4.30 4.46 4.64 4.80 4.45 4.28 4.15 4.02 3.54 3.45 3.44 3.58 3.57 3.53 3.68 3.62 3.64 3.66 3.83 3.99 3.87 3.80 4.16 4.59 4.00 3.31 2.63 2.03 1.91 1.90 2.19 2.49 2.44 2.44 2.67 3.14 3.36
2.71 2.95 3.47 3.75 3.91 4.16 4.51 4.58 4.57 4.52 4.47 4.40 4.44 4.35 4.17 3.90 3.67 3.50 3.37 3.34 3.35 3.21 3.38 3.14 3.45 3.72 3.94 3.63 3.72 3.69 3.55 3.51 3.38 2.65 2.11 1.99 2.19 2.39 2.49 2.42 2.54 2.90 3.19
2.28 2.60 3.21 3.81 4.10 4.34 4.60 4.67 4.92 4.76 4.61 4.43 4.44 4.50 4.30 3.99 3.63 3.26 3.30 3.33 3.31 3.12 3.01 2.98 3.28 3.26 3.38 3.43 3.49 3.47 3.52 3.48 3.29 3.04 2.62 2.38 2.23 1.96 1.98 2.13 2.36 2.68 2.92
2.40 2.72 3.18 3.73 4.19 4.39 4.44 4.46 4.59 4.62 4.60 4.34 4.20 3.88 3.49 3.35 3.21 2.95 2.99 3.08 2.99 2.96 2.99 2.95 3.02 3.04 3.14 3.24 3.28 3.25 3.41 3.36 3.33 3.38 2.98 2.70 2.46 2.09 1.91 1.97 2.14 2.39 2.58

GEFSSE_prec_meanprecacc_378.txt.gz
Total_Precipitation_Accumulation
3.69 3.89 4.48 4.31 3.57 3.34 3.37 3.33 3.39 3.30 3.30 3.41 3.37 3.24 3.09 2.98 2.77 2.78 2.78 2.81 2.83 3.01 3.23 3.36 3.43 3.44 3.35 3.22 3.15 3.11 2.97 2.77 3.09 3.22 3.31 3.30 3.19 3.23 3.35 3.46 3.55 2.62 2.48
3.06 3.12 3.65 3.56 3.31 3.31 3.22 3.25 3.28 3.17 3.22 3.33 3.33 3.22 3.03 2.85 2.80 2.76 2.72 2.81 2.90 3.00 3.24 3.31 3.18 3.05 2.85 2.74 2.80 2.96 2.94 2.91 3.24 3.46 3.61 3.59 3.53 3.50 3.54 3.54 3.55 2.44 2.30
2.48 2.52 2.82 3.04 2.89 2.94 2.91 2.84 2.83 2.85 3.10 3.18 3.19 3.24 3.15 2.94 2.92 2.86 2.71 2.88 3.01 2.93 3.05 3.01 2.83 2.65 2.48 2.40 2.52 2.89 2.97 3.15 3.67 3.91 4.28 3.81 3.27 3.65 3.59 3.50 3.14 2.41 2.27
2.04 2.17 2.30 2.72 2.61 2.46 2.40 2.45 2.64 2.65 2.67 2.77 2.97 3.21 3.30 3.20 3.07 3.02 2.88 3.02 3.07 2.91 3.00 2.88 2.58 2.31 2.21 2.23 2.49 2.74 2.90 3.23 3.74 4.28 4.53 3.52 2.69 3.09 3.16 3.00 2.87 2.50 2.32
1.77 1.94 2.29 2.41 2.31 2.19 2.16 2.23 2.50 2.40 2.38 2.51 2.64 2.96 3.23 3.30 3.38 3.31 3.07 3.04 2.90 2.82 2.86 2.72 2.36 2.15 2.02 2.03 2.36 2.56 2.72 3.20 3.85 4.04 3.57 3.43 3.16 2.94 2.71 2.67 2.69 2.44 2.20
1.55 1.74 2.08 2.22 2.09 1.98 2.01 2.15 2.39 2.28 2.33 2.43 2.45 2.80 3.03 3.06 3.10 3.09 3.07 2.90 2.72 2.63 2.61 2.73 2.32 2.15 2.08 2.12 2.36 2.47 2.68 3.17 3.59 3.19 2.77 2.91 2.68 2.68 2.62 2.72 2.74 2.57 2.22
1.51 1.78 1.97 2.13 2.06 1.98 2.05 2.14 2.28 2.28 2.26 2.31 2.47 2.77 2.86 2.83 2.95 2.94 2.86 2.58 2.38 2.45 2.48 2.51 2.36 2.16 2.13 2.26 2.32 2.39 2.72 3.13 2.95 2.57 2.52 2.73 2.22 2.15 2.53 2.85 3.12 2.92 2.47
1.33 1.64 1.81 2.02 2.06 1.99 1.97 2.01 2.14 2.04 2.04 2.20 2.42 2.59 2.52 2.48 2.61 2.65 2.63 2.50 2.24 2.33 2.28 2.20 2.34 2.24 2.31 2.36 2.27 2.18 2.40 2.67 2.32 2.12 2.25 2.37 1.89 2.05 2.59 3.00 3.36 3.21 2.82
1.25 1.48 1.78 2.04 2.06 2.01 1.96 1.90 2.05 2.11 2.03 2.09 2.23 2.36 2.43 2.42 2.36 2.29 2.40 2.43 2.25 2.18 2.07 2.07 2.27 2.45 2.49 2.32 2.05 1.99 2.20 2.58 2.38 2.14 1.91 2.00 1.85 2.15 2.74 3.06 3.26 3.18 2.95
1.62 1.67 1.71 1.67 1.75 1.84 1.89 1.99 2.10 2.18 2.13 2.14 2.19 2.30 2.43 2.37 2.26 2.15 1.99 2.18 2.23 2.14 2.05 2.02 2.21 2.39 2.26 2.13 1.99 2.12 2.36 2.47 2.29 2.21 2.09 1.83 1.89 2.33 2.85 3.02 3.20 3.07 2.90
2.20 2.25 1.97 1.74 1.70 1.83 1.75 1.85 2.35 2.54 2.44 2.51 2.61 2.58 2.68 2.70 2.50 2.45 2.30 2.45 2.34 2.34 2.36 2.32 2.36 2.52 2.26 1.97 2.10 2.38 2.38 2.34 2.62 2.67 2.13 1.76 2.07 2.70 3.04 3.11 3.11 2.96 2.89
2.68 2.72 2.32 2.00 1.80 1.67 1.47 1.97 2.57 2.48 2.59 2.77 2.83 2.65 2.93 3.14 3.01 2.45 2.75 3.10 3.05 3.13 2.99 2.84 2.78 2.59 2.47 2.25 2.63 2.97 2.46 2.65 2.96 2.78 2.26 2.10 2.62 3.18 3.59 3.55 3.19 2.88 2.75
3.02 2.91 2.46 2.18 1.99 1.73 1.86 1.96 2.30 2.59 2.92 2.87 2.63 2.60 3.01 2.89 2.67 2.67 2.92 3.11 3.27 3.11 2.98 2.95 3.05 2.83 3.08 3.51 3.61 3.33 2.77 2.86 2.97 2.84 2.49 2.48 3.13 3.89 4.30 4.10 3.55 3.14 2.91
3.16 2.88 2.56 2.34 2.15 2.01 1.95 1.99 2.16 2.30 2.60 2.75 2.79 2.68 2.93 3.37 3.33 3.26 3.40 3.37 3.45 3.57 3.93 3.67 3.78 3.54 3.55 3.59 3.70 3.43 3.12 3.18 3.18 3.41 3.48 3.25 3.55 4.08 4.66 4.56 3.99 3.55 3.42
3.29 3.08 2.81 2.45 2.50 2.42 2.55 2.65 2.32 2.39 2.55 2.84 3.12 3.05 3.08 3.51 3.54 3.50 3.54 3.64 3.39 3.42 3.72 4.08 3.85 3.88 4.05 3.89 3.54 3.34 3.39 3.41 3.47 3.52 3.63 3.76 3.67 3.83 4.51 4.75 4.40 4.02 3.91
3.71 3.67 3.41 2.99 3.01 3.05 2.95 2.99 2.93 2.63 2.87 2.99 3.16 3.09 3.21 3.50 3.71 3.68 3.47 3.61 3.44 3.36 3.55 3.86 3.84 4.28 4.28 4.27 3.84 3.55 3.49 3.52 3.51 3.57 3.58 3.94 3.83 3.64 4.06 4.52 4.68 4.58 4.40
3.83 3.97 3.91 3.73 3.80 3.79 3.58 3.35 3.15 3.05 3.02 3.32 3.48 3.35 3.38 3.44 3.73 3.72 3.64 3.51 3.50 3.52 3.75 3.87 3.90 4.27 4.25 4.20 4.10 3.78 3.60 3.32 3.20 3.34 3.32 3.53 3.46 3.39 3.63 4.07 4.46 4.65 4.73
3.96 4.21 4.41 4.28 4.33 4.26 4.22 4.04 3.68 3.56 3.57 3.52 3.45 3.49 3.36 3.47 3.63 3.92 3.72 3.42 3.51 3.48 3.68 4.10 4.23 4.46 4.63 4.57 4.28 3.90 3.67 3.57 3.30 3.25 3.07 3.03 3.32 2.93 3.24 3.71 4.06 4.32 4.87
4.25 4.68 5.09 5.18 5.10 4.84 4.57 4.48 4.36 4.21 3.99 3.70 3.64 3.54 3.37 3.33 3.36 3.75 3.70 3.63 3.61 3.84 3.88 3.65 4.34 4.68 4.82 4.71 3.92 3.74 3.34 3.29 3.16 2.90 2.96 2.88 3.10 3.14 3.23 3.16 3.32 3.66 4.61
4.71 5.36 5.50 5.54 5.83 5.64 5.35 5.23 5.06 4.67 4.28 3.94 3.78 3.64 3.31 3.26 3.22 3.65 3.49 3.51 3.60 3.99 4.17 4.26 4.75 4.76 4.58 4.68 3.87 3.52 3.04 2.69 2.69 2.74 2.54 2.61 2.73 2.63 2.92 3.37 3.72 3.42 3.93
4.54 5.19 5.89 6.14 6.04 5.90 5.67 5.26 4.93 4.57 4.34 3.97 3.57 3.29 3.22 3.21 3.38 3.95 3.58 3.95 3.83 3.90 4.00 4.15 4.48 4.51 4.26 4.48 4.55 3.88 2.93 2.35 2.33 2.23 2.24 2.40 2.30 2.31 2.69 3.36 3.66 3.72 3.51
3.94 4.43 4.95 5.33 5.05 4.74 4.63 4.61 4.53 4.50 4.06 3.88 3.70 3.73 3.39 3.40 3.46 3.57 3.87 3.79 3.84 4.02 3.81 3.87 4.28 4.20 3.74 4.09 4.56 4.67 3.74 3.05 2.42 1.84 2.04 2.13 2.25 2.45 2.39 2.48 2.95 3.57 3.56
3.37 3.53 3.75 4.04 4.14 4.21 4.34 4.50 4.69 4.86 4.51 4.34 4.22 4.08 3.58 3.48 3.47 3.61 3.60 3.59 3.75 3.67 3.70 3.74 3.90 4.07 3.95 3.87 4.25 4.68 4.12 3.44 2.73 2.09 1.97 1.94 2.23 2.54 2.48 2.49 2.71 3.19 3.44
2.73 2.96 3.49 3.77 3.94 4.19 4.54 4.61 4.62 4.58 4.54 4.48 4.51 4.42 4.24 3.94 3.71 3.53 3.40 3.38 3.41 3.27 3.45 3.20 3.52 3.79 4.02 3.70 3.80 3.75 3.61 3.60 3.48 2.75 2.18 2.03 2.24 2.42 2.52 2.45 2.57 2.95 3.26
2.29 2.61 3.22 3.82 4.12 4.37 4.63 4.69 4.96 4.81 4.67 4.49 4.51 4.57 4.37 4.04 3.67 3.29 3.33 3.36 3.35 3.16 3.06 3.03 3.34 3.32 3.44 3.49 3.54 3.52 3.58 3.55 3.37 3.13 2.70 2.43 2.28 1.99 2.00 2.15 2.37 2.70 2.96
2.41 2.72 3.19 3.74 4.22 4.41 4.46 4.47 4.61 4.65 4.67 4.40 4.27 3.95 3.55 3.39 3.24 2.97 3.01 3.10 3.01 2.99 3.02 2.98 3.06 3.08 3.19 3.29 3.33 3.30 3.46 3.42 3.39 3.45 3.06 2.77 2.52 2.13 1.93 2.00 2.16 2.41 2.62

GEFSSE_prec_meanprecacc_384.txt.gz
Total_Precipitation_Accumulation
3.74 3.93 4.56 4.37 3.61 3.37 3.40 3.36 3.41 3.33 3.32 3.42 3.39 3.28 3.14 3.02 2.81 2.84 2.84 2.87 2.90 3.08 3.28 3.41 3.48 3.50 3.40 3.28 3.21 3.17 3.03 2.81 3.14 3.28 3.36 3.34 3.23 3.26 3.38 3.50 3.60 2.66 2.53
3.09 3.15 3.71 3.60 3.33 3.33 3.24 3.28 3.31 3.20 3.24 3.34 3.36 3.26 3.07 2.91 2.86 2.81 2.77 2.86 2.97 3.08 3.32 3.38 3.24 3.11 2.91 2.79 2.86 3.01 3.00 2.97 3.31 3.53 3.67 3.62 3.56 3.53 3.57 3.59 3.60 2.47 2.34
2.50 2.55 2.87 3.07 2.91 2.95 2.93 2.86 2.86 2.87 3.12 3.20 3.22 3.27 3.19 2.99 2.96 2.90 2.76 2.96 3.10 3.03 3.15 3.10 2.93 2.73 2.54 2.46 2.58 2.94 3.03 3.22 3.75 4.01 4.37 3.85 3.30 3.70 3.64 3.57 3.19 2.44 2.30
2.06 2.20 2.33 2.75 2.62 2.47 2.42 2.47 2.66 2.67 2.68 2.79 3.01 3.26 3.35 3.24 3.11 3.05 2.93 3.09 3.15 3.01 3.10 2.97 2.66 2.37 2.26 2.28 2.54 2.79 2.96 3.30 3.82 4.38 4.58 3.55 2.71 3.14 3.22 3.06 2.92 2.53 2.35
1.79 1.95 2.31 2.44 2.33 2.22 2.19 2.25 2.52 2.41 2.40 2.54 2.68 3.01 3.27 3.35 3.43 3.35 3.10 3.08 2.94 2.86 2.91 2.78 2.42 2.26 2.17 2.16 2.46 2.63 2.79 3.30 3.94 4.13 3.63 3.46 3.17 2.98 2.77 2.71 2.72 2.46 2.22
1.57 1.75 2.11 2.26 2.12 2.01 2.03 2.18 2.42 2.30 2.35 2.47 2.48 2.84 3.07 3.11 3.18 3.18 3.11 2.93 2.75 2.66 2.64 2.76 2.36 2.34 2.21 2.19 2.43 2.59 2.77 3.28 3.69 3.29 2.84 2.95 2.70 2.72 2.67 2.75 2.76 2.59 2.25
1.52 1.80 2.01 2.17 2.09 2.01 2.07 2.18 2.31 2.30 2.28 2.34 2.50 2.80 2.90 2.88 3.05 3.08 2.96 2.63 2.41 2.48 2.50 2.54 2.40 2.31 2.29 2.35 2.40 2.52 2.84 3.26 3.05 2.64 2.58 2.76 2.24 2.18 2.56 2.87 3.14 2.95 2.50
1.34 1.66 1.85 2.06 2.10 2.03 2.01 2.06 2.17 2.06 2.05 2.22 2.44 2.62 2.56 2.53 2.66 2.72 2.70 2.55 2.27 2.36 2.30 2.23 2.37 2.32 2.53 2.60 2.48 2.39 2.58 2.81 2.41 2.21 2.30 2.41 1.91 2.08 2.61 3.02 3.38 3.25 2.87
1.28 1.50 1.82 2.09 2.11 2.05 2.00 1.94 2.08 2.13 2.04 2.11 2.24 2.38 2.46 2.46 2.39 2.32 2.42 2.45 2.26 2.19 2.09 2.10 2.30 2.49 2.60 2.54 2.32 2.25 2.39 2.71 2.48 2.24 1.97 2.04 1.87 2.17 2.77 3.08 3.28 3.21 2.99
1.65 1.71 1.77 1.74 1.80 1.88 1.92 2.01 2.12 2.20 2.16 2.16 2.22 2.32 2.45 2.39 2.28 2.18 2.01 2.20 2.24 2.16 2.08 2.06 2.25 2.42 2.33 2.25 2.16 2.28 2.49 2.58 2.38 2.28 2.14 1.86 1.91 2.36 2.89 3.04 3.22 3.10 2.92
2.25 2.32 2.07 1.81 1.75 1.87 1.79 1.87 2.36 2.56 2.46 2.55 2.64 2.62 2.71 2.72 2.51 2.47 2.32 2.47 2.36 2.36 2.39 2.35 2.40 2.57 2.35 2.05 2.19 2.47 2.46 2.40 2.68 2.72 2.17 1.78 2.09 2.74 3.10 3.15 3.14 2.98 2.91
2.71 2.77 2.39 2.05 1.85 1.73 1.50 1.99 2.58 2.49 2.61 2.78 2.85 2.67 2.95 3.16 3.04 2.47 2.77 3.12 3.08 3.16 3.02 2.88 2.83 2.63 2.52 2.29 2.68 3.02 2.53 2.70 3.00 2.82 2.28 2.12 2.65 3.23 3.65 3.58 3.22 2.91 2.77
3.04 2.94 2.52 2.24 2.05 1.78 1.90 1.99 2.33 2.62 2.94 2.89 2.68 2.62 3.03 2.93 2.71 2.70 2.94 3.13 3.30 3.15 3.02 2.98 3.08 2.86 3.12 3.56 3.66 3.37 2.84 2.92 3.02 2.89 2.52 2.50 3.15 3.93 4.36 4.13 3.58 3.16 2.93
3.18 2.91 2.63 2.42 2.21 2.05 1.98 2.03 2.19 2.34 2.65 2.80 2.84 2.71 2.95 3.40 3.36 3.28 3.41 3.38 3.48 3.60 3.97 3.70 3.82 3.60 3.62 3.68 3.79 3.50 3.18 3.23 3.21 3.45 3.51 3.26 3.57 4.13 4.72 4.61 4.02 3.58 3.44
3.31 3.11 2.87 2.54 2.57 2.47 2.59 2.68 2.35 2.45 2.61 2.91 3.17 3.09 3.10 3.53 3.56 3.51 3.54 3.65 3.40 3.44 3.74 4.11 3.90 3.94 4.11 3.99 3.68 3.44 3.48 3.48 3.51 3.54 3.65 3.78 3.69 3.87 4.56 4.80 4.43 4.05 3.93
3.73 3.71 3.45 3.07 3.10 3.11 3.01 3.05 2.98 2.68 2.93 3.06 3.22 3.14 3.24 3.53 3.74 3.70 3.49 3.62 3.45 3.38 3.56 3.89 3.87 4.33 4.34 4.36 3.95 3.66 3.60 3.60 3.55 3.59 3.61 3.97 3.87 3.68 4.11 4.58 4.73 4.62 4.43
3.84 4.00 3.95 3.78 3.87 3.87 3.65 3.41 3.21 3.10 3.09 3.40 3.54 3.40 3.43 3.48 3.75 3.73 3.65 3.52 3.52 3.54 3.77 3.90 3.94 4.32 4.29 4.27 4.21 3.89 3.71 3.41 3.25 3.37 3.35 3.56 3.50 3.43 3.70 4.15 4.53 4.69 4.76
3.96 4.22 4.43 4.31 4.38 4.32 4.29 4.10 3.74 3.62 3.62 3.58 3.49 3.52 3.40 3.51 3.65 3.93 3.74 3.44 3.53 3.51 3.71 4.14 4.27 4.51 4.68 4.65 4.38 4.00 3.77 3.67 3.37 3.31 3.12 3.08 3.37 2.99 3.30 3.78 4.15 4.38 4.92
4.26 4.68 5.11 5.21 5.14 4.89 4.62 4.52 4.40 4.25 4.03 3.73 3.66 3.57 3.40 3.37 3.38 3.75 3.71 3.64 3.63 3.86 3.92 3.70 4.40 4.74 4.87 4.76 3.97 3.81 3.43 3.40 3.27 2.99 3.03 2.96 3.22 3.25 3.31 3.23 3.36 3.70 4.66
4.72 5.38 5.53 5.56 5.85 5.66 5.37 5.26 5.09 4.71 4.31 3.97 3.80 3.66 3.34 3.29 3.25 3.67 3.50 3.52 3.61 4.01 4.20 4.29 4.78 4.81 4.61 4.71 3.90 3.58 3.12 2.79 2.79 2.86 2.65 2.71 2.85 2.73 3.01 3.44 3.77 3.45 3.96
4.58 5.24 5.91 6.15 6.05 5.91 5.69 5.28 4.95 4.59 4.37 4.00 3.58 3.31 3.25 3.24 3.41 3.98 3.60 3.97 3.84 3.92 4.02 4.18 4.50 4.55 4.29 4.51 4.60 3.94 3.00 2.41 2.40 2.31 2.33 2.48 2.39 2.39 2.77 3.44 3.72 3.76 3.55
3.98 4.45 4.96 5.34 5.06 4.75 4.64 4.63 4.54 4.51 4.07 3.90 3.72 3.75 3.42 3.44 3.49 3.59 3.89 3.81 3.86 4.03 3.82 3.88 4.30 4.21 3.76 4.12 4.61 4.73 3.80 3.10 2.47 1.89 2.09 2.20 2.33 2.52 2.46 2.55 3.00 3.61 3.59
3.39 3.54 3.75 4.05 4.15 4.22 4.35 4.52 4.71 4.88 4.53 4.36 4.25 4.10 3.60 3.51 3.50 3.64 3.63 3.61 3.77 3.69 3.72 3.75 3.93 4.09 3.97 3.90 4.28 4.74 4.16 3.47 2.76 2.13 2.01 2.00 2.30 2.61 2.52 2.54 2.77 3.22 3.46
2.74 2.98 3.51 3.78 3.95 4.21 4.55 4.63 4.63 4.59 4.56 4.50 4.53 4.43 4.26 3.97 3.73 3.56 3.42 3.40 3.43 3.28 3.46 3.21 3.53 3.81 4.04 3.72 3.82 3.79 3.66 3.64 3.51 2.78 2.22 2.08 2.29 2.48 2.57 2.51 2.65 3.01 3.30
2.30 2.63 3.25 3.85 4.15 4.39 4.65 4.71 4.97 4.83 4.69 4.51 4.52 4.59 4.39 4.06 3.69 3.31 3.35 3.37 3.36 3.17 3.07 3.03 3.36 3.33 3.46 3.51 3.57 3.55 3.62 3.58 3.40 3.16 2.73 2.46 2.31 2.03 2.05 2.20 2.42 2.75 3.03
2.42 2.74 3.24 3.79 4.25 4.44 4.48 4.48 4.62 4.67 4.68 4.42 4.29 3.97 3.58 3.42 3.29 3.01 3.04 3.12 3.02 3.00 3.03 2.99 3.07 3.09 3.20 3.31 3.35 3.33 3.49 3.45 3.41 3.48 3.09 2.79 2.54 2.15 1.97 2.04 2.22 2.48 2.71